Location: Caltech
(34.1382°N, 118.1253°W)
Time: 17:04:22
(UTC-07:00)

Iridium 14 - Visible Passes

Search period start: 28 May 2017 00:00
Search period end: 07 June 2017 00:00
Orbit: 776 x 779 km, 86.4° (Epoch: 27 May)

Date Brightness Start Highest point End Pass type
(mag) Time Alt. Az. Time Alt. Az. Time Alt. Az.
28 May 8.2 01:15:15 17° WNW 01:15:15 17° WNW 01:17:22 10° NW visible
28 May 8.0 23:01:13 18° ENE 23:01:13 18° ENE 23:03:23 10° NE visible
29 May 7.6 00:41:40 29° NW 00:41:40 29° NW 00:44:47 10° NNW visible
30 May 7.1 00:08:06 42° NNW 00:08:06 42° NNW 00:11:36 10° N visible
30 May 7.0 23:34:30 41° NNE 23:34:30 41° NNE 23:38:01 10° N visible
31 May 8.5 01:14:57 12° WNW 01:14:57 12° WNW 01:16:09 10° NW visible
31 May 7.4 23:00:53 27° ENE 23:00:53 27° ENE 23:04:02 10° NNE visible
01 Jun 7.9 00:41:21 22° WNW 00:41:21 22° WNW 00:44:23 10° NNW visible
01 Jun 8.0 22:27:17 15° ENE 22:27:17 15° ENE 22:29:19 10° NE visible
02 Jun 7.2 00:07:44 39° NW 00:07:44 39° NW 00:11:31 10° NNW visible
02 Jun 6.6 23:34:07 55° N 23:34:07 55° N 23:38:10 10° N visible
03 Jun 6.8 23:00:29 40° NE 23:00:29 40° NE 23:04:26 10° NNE visible
04 Jun 8.2 00:40:57 16° WNW 00:40:57 16° WNW 00:43:39 10° NW visible
04 Jun 7.5 22:26:51 23° ENE 22:26:51 23° ENE 22:30:13 10° NNE visible
05 Jun 7.5 00:07:18 30° WNW 00:07:18 30° WNW 00:11:15 10° NNW visible
05 Jun 8.1 21:53:12 12° ENE 21:53:12 12° ENE 21:54:50 10° ENE visible
05 Jun 6.5 23:33:39 56° NW 23:33:39 56° NW 23:38:10 10° N visible
06 Jun 6.1 23:00:00 64° NE 23:00:00 64° NE 23:04:40 10° N visible
